Location: Fort Worth, Tx
(32.7431°N, 97.3695°W)
Time: 00:13:36
(UTC-04:00)

Vanguard 2 - Pass Details

Date: 24 February 2024
Orbit: 552 x 2916 km, 32.9° (Epoch: 24 April)

Event Time Altitude Azimuth Distance (km) Brightness Sun altitude
Rises 22:29:21 0° 264° (W) 4,926 12.4 -39.7°
Reaches altitude 10° 22:32:07 10° 264° (W) 4,202 11.9 -40.3°
Maximum altitude 22:44:33 90° 351° (N) 2,506 9.8 -42.8°
Enters shadow 22:45:13 85° 84° (E) 2,541 9.8 -42.9°
